WXM80 ListenWXM80 Stop

You find our weather info also at:

UK Metoffice

WeatherCloud

Weather Underground

Northeastern Weather Network

AWEKAS

Citizen Weather Observer Program (CWOP)

HAMweather, WeatherForYou, PWS Weather


Weather Underground History page Text

Daily Summary for May 27, 2016 Units:  English    Metric   Both
« Previous Day
Next Day »
Daily Weekly Monthly Yearly Custom
  High: Low: Average:
Temperature: 88.3 °F 62.8 °F 73.4 °F
Dew Point: 71.1 °F 58.1 °F 63.6 °F
Humidity: 93 % 53 % 72 %
Wind Speed: 7.7 mph 0.0 mph 1.7 mph
Wind Gust: 12.7 mph - -
Wind:- - SSE
Pressure: 30.05 in 29.98 in -
Precipitation: 0.00 in    
Historical Graphs
 
 
Tabular Data for May 27, 2016
Time Temperature Dew Point Pressure Wind Wind Speed Wind Gust Humidity Rainfall Rate (Hourly)
00:00 70.9 °F 58.1 °F 30.03 in South 0.5 mph 2.3 mph 64 % 0.00 in
00:05 70.9 °F 58.1 °F 30.03 in Calm   1.2 mph 64 % 0.00 in
00:10 70.8 °F 58.4 °F 30.03 in East 0.2 mph 1.2 mph 65 % 0.00 in
00:15 70.7 °F 58.4 °F 30.03 in WSW 0.1 mph 1.2 mph 65 % 0.00 in
00:20 70.7 °F 58.4 °F 30.03 in Calm     65 % 0.00 in
00:25 70.5 °F 58.6 °F 30.03 in WSW 0.3 mph 1.2 mph 66 % 0.00 in
00:30 70.3 °F 58.4 °F 30.02 in Calm     66 % 0.00 in
00:35 70.1 °F 58.6 °F 30.02 in WSW 0.3 mph 1.2 mph 67 % 0.00 in
00:41 69.9 °F 58.4 °F 30.02 in WSW 0.1 mph 2.0 mph 67 % 0.00 in
00:46 69.7 °F 58.3 °F 30.02 in Calm     67 % 0.00 in
00:51 69.5 °F 58.1 °F 30.02 in Calm     67 % 0.00 in
00:56 69.3 °F 58.3 °F 30.02 in Calm     68 % 0.00 in
01:01 69.1 °F 58.1 °F 30.02 in Calm   1.2 mph 68 % 0.00 in
01:06 68.9 °F 58.3 °F 30.02 in Calm     69 % 0.00 in
01:11 68.8 °F 58.6 °F 30.02 in WSW 1.6 mph 3.5 mph 70 % 0.00 in
01:16 68.7 °F 58.5 °F 30.03 in Calm     70 % 0.00 in
01:21 68.6 °F 58.8 °F 30.03 in Calm   1.2 mph 71 % 0.00 in
01:26 68.5 °F 58.3 °F 30.03 in Calm     70 % 0.00 in
01:32 68.4 °F 58.2 °F 30.03 in Calm     70 % 0.00 in
01:37 68.3 °F 58.5 °F 30.02 in Calm     71 % 0.00 in
01:42 68.3 °F 58.5 °F 30.02 in Calm     71 % 0.00 in
01:47 68.1 °F 58.3 °F 30.02 in Calm     71 % 0.00 in
01:52 67.9 °F 58.5 °F 30.03 in Calm     72 % 0.00 in
01:57 67.8 °F 58.4 °F 30.03 in Calm     72 % 0.00 in
02:02 67.6 °F 58.6 °F 30.04 in Calm     73 % 0.00 in
02:07 67.4 °F 58.8 °F 30.04 in Calm     74 % 0.00 in
02:12 67.2 °F 58.6 °F 30.04 in Calm     74 % 0.00 in
02:17 67.0 °F 58.8 °F 30.03 in Calm     75 % 0.00 in
02:23 66.8 °F 59.0 °F 30.03 in Calm     76 % 0.00 in
02:28 66.6 °F 59.2 °F 30.04 in Calm     77 % 0.00 in
02:33 66.4 °F 59.3 °F 30.03 in Calm     78 % 0.00 in
02:38 66.2 °F 59.1 °F 30.03 in Calm     78 % 0.00 in
02:43 65.9 °F 59.2 °F 30.03 in Calm     79 % 0.00 in
02:48 65.8 °F 59.1 °F 30.03 in Calm     79 % 0.00 in
02:53 65.6 °F 58.9 °F 30.03 in Calm     79 % 0.00 in
02:58 65.5 °F 59.2 °F 30.03 in Calm     80 % 0.00 in
03:03 65.4 °F 59.4 °F 30.03 in Calm     81 % 0.00 in
03:08 65.2 °F 58.9 °F 30.03 in Calm     80 % 0.00 in
03:14 65.1 °F 59.1 °F 30.03 in Calm     81 % 0.00 in
03:24 64.8 °F 59.2 °F 30.03 in Calm     82 % 0.00 in
03:29 64.7 °F 59.1 °F 30.03 in Calm     82 % 0.00 in
03:34 64.6 °F 59.3 °F 30.03 in Calm     83 % 0.00 in
03:39 64.4 °F 59.5 °F 30.03 in Calm     84 % 0.00 in
03:44 64.2 °F 59.3 °F 30.04 in Calm     84 % 0.00 in
03:54 64.0 °F 59.1 °F 30.04 in Calm     84 % 0.00 in
04:00 64.0 °F 59.1 °F 30.04 in Calm     84 % 0.00 in
04:05 63.9 °F 59.0 °F 30.04 in Calm     84 % 0.00 in
04:10 63.8 °F 58.9 °F 30.04 in Calm     84 % 0.00 in
04:15 63.7 °F 59.1 °F 30.04 in Calm     85 % 0.00 in
04:20 63.7 °F 59.1 °F 30.04 in Calm     85 % 0.00 in
04:25 63.6 °F 59.3 °F 30.04 in Calm     86 % 0.00 in
04:30 63.4 °F 59.1 °F 30.04 in Calm     86 % 0.00 in
04:35 63.3 °F 59.4 °F 30.04 in Calm     87 % 0.00 in
04:40 63.2 °F 58.9 °F 30.04 in Calm     86 % 0.00 in
04:45 63.1 °F 59.2 °F 30.04 in Calm     87 % 0.00 in
04:50 63.0 °F 59.1 °F 30.04 in Calm     87 % 0.00 in
04:52 63.0 °F 59.1 °F 30.04 in Calm     87 % 0.00 in
04:58 62.9 °F 59.3 °F 30.04 in Calm     88 % 0.00 in
05:03 62.9 °F 59.0 °F 30.04 in Calm     87 % 0.00 in
05:08 62.8 °F 59.2 °F 30.04 in Calm     88 % 0.00 in
05:13 62.8 °F 59.2 °F 30.04 in WSW 0.3 mph 1.2 mph 88 % 0.00 in
05:18 62.8 °F 59.5 °F 30.04 in Calm   1.2 mph 89 % 0.00 in
05:23 62.8 °F 59.8 °F 30.04 in Calm     90 % 0.00 in
05:28 62.8 °F 59.8 °F 30.04 in Calm     90 % 0.00 in
05:33 62.9 °F 60.2 °F 30.04 in Calm     91 % 0.00 in
05:38 62.9 °F 60.2 °F 30.04 in Calm     91 % 0.00 in
05:43 63.0 °F 60.3 °F 30.04 in Calm     91 % 0.00 in
05:49 63.1 °F 60.4 °F 30.05 in Calm     91 % 0.00 in
05:54 63.1 °F 60.4 °F 30.05 in Calm     91 % 0.00 in
05:59 63.1 °F 60.1 °F 30.04 in Calm     90 % 0.00 in
06:04 63.1 °F 60.1 °F 30.05 in Calm     90 % 0.00 in
06:09 63.1 °F 60.1 °F 30.04 in Calm     90 % 0.00 in
06:14 63.2 °F 60.2 °F 30.04 in Calm     90 % 0.00 in
06:19 63.4 °F 60.7 °F 30.04 in Calm     91 % 0.00 in
06:24 63.6 °F 60.9 °F 30.04 in Calm     91 % 0.00 in
06:29 63.8 °F 61.4 °F 30.04 in Calm     92 % 0.00 in
06:34 64.0 °F 61.6 °F 30.04 in Calm     92 % 0.00 in
06:40 64.3 °F 61.9 °F 30.04 in Calm     92 % 0.00 in
06:45 64.6 °F 62.5 °F 30.04 in Calm     93 % 0.00 in
06:50 64.9 °F 62.8 °F 30.05 in Calm     93 % 0.00 in
06:55 65.4 °F 63.3 °F 30.05 in Calm   1.2 mph 93 % 0.00 in
07:00 65.8 °F 63.4 °F 30.05 in WSW 0.4 mph 1.2 mph 92 % 0.00 in
07:05 66.3 °F 63.6 °F 30.05 in WSW 0.6 mph 2.3 mph 91 % 0.00 in
07:10 66.9 °F 63.9 °F 30.05 in WSW 0.5 mph 1.2 mph 90 % 0.00 in
07:15 67.5 °F 63.5 °F 30.05 in WSW 0.1 mph 1.0 mph 87 % 0.00 in
07:20 68.2 °F 63.9 °F 30.05 in NNW 0.7 mph 2.3 mph 86 % 0.00 in
07:25 68.8 °F 64.1 °F 30.05 in Calm     85 % 0.00 in
07:31 69.6 °F 64.2 °F 30.05 in Calm   1.2 mph 83 % 0.00 in
07:36 70.3 °F 64.5 °F 30.05 in NNW 0.1 mph 1.2 mph 82 % 0.00 in
07:41 70.7 °F 65.3 °F 30.05 in Calm   1.2 mph 83 % 0.00 in
07:46 71.2 °F 65.1 °F 30.04 in NNW 0.4 mph 1.2 mph 81 % 0.00 in
07:51 71.8 °F 65.7 °F 30.05 in Calm   1.2 mph 81 % 0.00 in
07:56 72.3 °F 65.8 °F 30.05 in NNW 1.1 mph 1.2 mph 80 % 0.00 in
08:01 72.7 °F 65.4 °F 30.04 in NNW 1.2 mph 2.3 mph 78 % 0.00 in
08:03 72.8 °F 65.9 °F 30.05 in NNW 0.8 mph 2.3 mph 79 % 0.00 in
08:08 73.1 °F 65.5 °F 30.05 in Calm   1.2 mph 77 % 0.00 in
08:18 73.7 °F 65.7 °F 30.04 in SE 1.7 mph 3.5 mph 76 % 0.00 in
08:23 74.2 °F 66.1 °F 30.04 in SSE 0.2 mph 2.0 mph 76 % 0.00 in
08:28 74.5 °F 66.4 °F 30.04 in SSE 0.6 mph 1.2 mph 76 % 0.00 in
08:33 74.8 °F 66.3 °F 30.04 in SE 0.8 mph 4.0 mph 75 % 0.00 in
08:39 75.1 °F 66.2 °F 30.04 in WSW 0.6 mph 2.3 mph 74 % 0.00 in
08:44 75.3 °F 66.4 °F 30.04 in Calm   1.2 mph 74 % 0.00 in
08:54 75.7 °F 66.8 °F 30.05 in WSW 0.3 mph 3.5 mph 74 % 0.00 in
08:59 75.8 °F 66.1 °F 30.04 in SSE 0.7 mph 2.3 mph 72 % 0.00 in
09:04 76.0 °F 66.7 °F 30.04 in WSW 0.1 mph 3.5 mph 73 % 0.00 in
09:09 76.2 °F 66.9 °F 30.04 in Calm     73 % 0.00 in
09:14 76.2 °F 66.5 °F 30.04 in SE 0.3 mph 2.3 mph 72 % 0.00 in
09:19 76.3 °F 66.6 °F 30.04 in SE 0.8 mph 2.0 mph 72 % 0.00 in
09:24 76.4 °F 67.9 °F 30.04 in SE 0.2 mph   75 % 0.00 in
09:30 76.7 °F 66.6 °F 30.03 in SE 0.7 mph 3.5 mph 71 % 0.00 in
09:35 77.1 °F 67.0 °F 30.03 in SE 1.1 mph 2.3 mph 71 % 0.00 in
09:40 77.7 °F 67.1 °F 30.03 in SE 0.9 mph 3.5 mph 70 % 0.00 in
09:45 78.3 °F 67.7 °F 30.04 in West 0.8 mph 2.3 mph 70 % 0.00 in
09:50 79.1 °F 67.6 °F 30.04 in SSE 2.4 mph 3.5 mph 68 % 0.00 in
09:55 79.8 °F 68.3 °F 30.04 in SSE 0.3 mph 2.3 mph 68 % 0.00 in
10:00 80.4 °F 68.9 °F 30.04 in ENE 0.7 mph 3.0 mph 68 % 0.00 in
10:05 81.2 °F 69.2 °F 30.04 in ENE 0.5 mph 2.3 mph 67 % 0.00 in
10:10 81.5 °F 67.7 °F 30.04 in North 6.0 mph 8.0 mph 63 % 0.00 in
10:15 81.2 °F 67.9 °F 30.04 in North 1.3 mph 2.3 mph 64 % 0.00 in
10:21 80.7 °F 66.5 °F 30.04 in NNW 0.5 mph 2.3 mph 62 % 0.00 in
10:26 80.5 °F 66.3 °F 30.05 in ENE 1.7 mph 4.6 mph 62 % 0.00 in
10:31 79.8 °F 65.6 °F 30.05 in NE 1.4 mph 3.5 mph 62 % 0.00 in
10:41 78.8 °F 66.0 °F 30.05 in NE 0.8 mph 2.3 mph 65 % 0.00 in
10:46 78.9 °F 67.0 °F 30.04 in North 2.4 mph 4.0 mph 67 % 0.00 in
10:51 79.1 °F 67.2 °F 30.04 in North 1.4 mph 4.0 mph 67 % 0.00 in
10:56 79.4 °F 67.5 °F 30.04 in NNE 0.8 mph 2.3 mph 67 % 0.00 in
11:01 79.8 °F 67.4 °F 30.04 in NE 1.2 mph 2.3 mph 66 % 0.00 in
11:06 79.9 °F 67.5 °F 30.04 in NE 3.8 mph 8.0 mph 66 % 0.00 in
11:12 79.4 °F 66.6 °F 30.05 in NE 2.2 mph 6.9 mph 65 % 0.00 in
11:17 79.6 °F 67.2 °F 30.04 in ENE 2.3 mph 3.5 mph 66 % 0.00 in
11:22 79.6 °F 66.8 °F 30.05 in NE 1.8 mph 3.0 mph 65 % 0.00 in
11:27 79.3 °F 67.0 °F 30.05 in NE 1.9 mph 3.5 mph 66 % 0.00 in
11:32 78.6 °F 65.8 °F 30.05 in North 3.2 mph 6.0 mph 65 % 0.00 in
11:37 78.0 °F 65.3 °F 30.05 in ENE 3.0 mph 6.9 mph 65 % 0.00 in
11:42 77.3 °F 65.1 °F 30.05 in ENE 3.3 mph 5.8 mph 66 % 0.00 in
11:47 76.5 °F 65.6 °F 30.05 in NE 1.2 mph 4.6 mph 69 % 0.00 in
11:52 76.0 °F 65.1 °F 30.05 in ENE 2.5 mph 6.9 mph 69 % 0.00 in
11:57 75.3 °F 64.0 °F 30.04 in ENE 3.9 mph 6.9 mph 68 % 0.00 in
12:08 73.9 °F 64.3 °F 30.04 in ENE 3.4 mph 4.6 mph 72 % 0.00 in
12:13 73.9 °F 64.7 °F 30.04 in NNE 1.4 mph 4.6 mph 73 % 0.00 in
12:18 74.3 °F 65.9 °F 30.04 in ENE 2.2 mph 4.0 mph 75 % 0.00 in
12:23 74.5 °F 64.9 °F 30.05 in NE 3.8 mph 7.0 mph 72 % 0.00 in
12:28 74.1 °F 65.3 °F 30.04 in ENE 2.3 mph 4.0 mph 74 % 0.00 in
12:33 74.5 °F 65.3 °F 30.04 in ENE 3.1 mph 3.5 mph 73 % 0.00 in
12:38 74.5 °F 65.3 °F 30.04 in NE 2.2 mph 4.6 mph 73 % 0.00 in
12:43 74.6 °F 65.4 °F 30.04 in ENE 2.9 mph 6.9 mph 73 % 0.00 in
12:48 74.8 °F 66.0 °F 30.03 in ENE 3.5 mph 5.8 mph 74 % 0.00 in
12:54 75.1 °F 65.5 °F 30.03 in NE 2.2 mph 4.6 mph 72 % 0.00 in
12:59 75.9 °F 67.0 °F 30.03 in NNE 2.3 mph 4.0 mph 74 % 0.00 in
13:04 77.0 °F 67.3 °F 30.03 in NNE 1.9 mph 3.5 mph 72 % 0.00 in
13:09 78.0 °F 67.4 °F 30.03 in NNE 3.8 mph 4.6 mph 70 % 0.00 in
13:14 78.8 °F 68.6 °F 30.03 in NNE 1.8 mph 3.5 mph 71 % 0.00 in
13:19 79.5 °F 68.4 °F 30.02 in West 1.7 mph 3.5 mph 69 % 0.00 in
13:24 80.7 °F 69.6 °F 30.02 in South 4.9 mph 9.2 mph 69 % 0.00 in
13:29 82.3 °F 71.1 °F 30.02 in SSE 3.7 mph 4.0 mph 69 % 0.00 in
13:34 83.6 °F 68.7 °F 30.02 in South 2.0 mph 8.1 mph 61 % 0.00 in
13:39 84.5 °F 69.1 °F 30.02 in SSE 1.1 mph 6.9 mph 60 % 0.00 in
13:45 85.4 °F 69.9 °F 30.01 in SW 0.3 mph 3.5 mph 60 % 0.00 in
13:55 87.2 °F 69.1 °F 30.02 in South 7.7 mph 11.0 mph 55 % 0.00 in
14:00 87.4 °F 68.7 °F 30.01 in SSE 2.6 mph 9.2 mph 54 % 0.00 in
14:05 87.4 °F 69.3 °F 30.01 in ESE 2.0 mph 4.6 mph 55 % 0.00 in
14:10 87.8 °F 69.6 °F 30.01 in SSE 1.9 mph 4.6 mph 55 % 0.00 in
14:15 88.2 °F 69.5 °F 30.01 in SSE 5.0 mph 9.2 mph 54 % 0.00 in
14:20 88.3 °F 69.5 °F 30.02 in SE 1.9 mph 3.5 mph 54 % 0.00 in
14:25 87.7 °F 68.4 °F 30.01 in SSE 6.7 mph 9.2 mph 53 % 0.00 in
14:30 87.2 °F 69.1 °F 30.01 in SSE 3.8 mph 8.1 mph 55 % 0.00 in
14:36 87.3 °F 70.2 °F 30.01 in South 2.5 mph 10.4 mph 57 % 0.00 in
14:46 86.8 °F 68.2 °F 30.01 in SE 4.9 mph 12.7 mph 54 % 0.00 in
14:51 86.3 °F 69.3 °F 30.01 in South 3.5 mph 9.2 mph 57 % 0.00 in
14:56 86.2 °F 69.2 °F 30.01 in ESE 3.7 mph 11.0 mph 57 % 0.00 in
15:01 86.3 °F 68.8 °F 30.01 in SW 3.8 mph 8.1 mph 56 % 0.00 in
15:06 86.0 °F 68.0 °F 30.00 in South 7.7 mph 12.7 mph 55 % 0.00 in
15:16 84.8 °F 67.9 °F 30.00 in South 4.3 mph 8.1 mph 57 % 0.00 in
15:21 84.8 °F 67.9 °F 30.00 in SSW 3.4 mph 11.5 mph 57 % 0.00 in
15:27 84.8 °F 68.4 °F 30.00 in South 2.1 mph 8.1 mph 58 % 0.00 in
15:32 85.0 °F 69.1 °F 30.00 in SSE 3.6 mph 6.0 mph 59 % 0.00 in
15:37 84.4 °F 68.5 °F 30.00 in SSW 2.7 mph 4.6 mph 59 % 0.00 in
15:42 84.5 °F 69.1 °F 30.00 in SE 2.7 mph 8.0 mph 60 % 0.00 in
15:47 84.4 °F 67.5 °F 30.00 in SSE 4.6 mph 9.2 mph 57 % 0.00 in
15:52 84.4 °F 68.5 °F 30.00 in SSW 3.3 mph 5.8 mph 59 % 0.00 in
15:57 84.6 °F 68.7 °F 30.00 in SSE 2.0 mph 5.8 mph 59 % 0.00 in
16:02 84.5 °F 68.1 °F 30.00 in SSW 3.2 mph 6.9 mph 58 % 0.00 in
16:07 84.4 °F 68.5 °F 30.00 in SSE 3.6 mph 4.6 mph 59 % 0.00 in
16:12 84.2 °F 68.3 °F 30.00 in SSE 1.6 mph 6.9 mph 59 % 0.00 in
16:18 84.0 °F 68.6 °F 30.00 in South 6.2 mph 9.2 mph 60 % 0.00 in
16:23 83.6 °F 67.8 °F 30.00 in SE 5.1 mph 9.2 mph 59 % 0.00 in
16:28 82.8 °F 67.0 °F 30.00 in SE 2.4 mph 8.1 mph 59 % 0.00 in
16:33 82.4 °F 67.6 °F 30.00 in SSE 2.2 mph 4.6 mph 61 % 0.00 in
16:38 82.1 °F 67.3 °F 30.00 in South 2.5 mph 5.8 mph 61 % 0.00 in
16:43 81.5 °F 67.2 °F 30.00 in WSW 1.4 mph 2.3 mph 62 % 0.00 in
16:48 81.3 °F 67.5 °F 30.00 in SSE 2.7 mph 12.0 mph 63 % 0.00 in
16:53 81.1 °F 66.8 °F 30.00 in SSE 0.6 mph 8.1 mph 62 % 0.00 in
16:58 80.9 °F 67.1 °F 29.99 in SSE 1.5 mph 4.6 mph 63 % 0.00 in
17:04 80.9 °F 67.6 °F 29.99 in SSW 2.4 mph 5.8 mph 64 % 0.00 in
17:09 80.9 °F 67.1 °F 29.99 in SSW 3.7 mph 6.9 mph 63 % 0.00 in
17:14 80.7 °F 66.9 °F 29.99 in SE 1.6 mph 8.1 mph 63 % 0.00 in
17:19 80.3 °F 67.0 °F 29.99 in SSW 0.9 mph 5.0 mph 64 % 0.00 in
17:24 80.0 °F 66.7 °F 29.99 in SSW 3.6 mph 6.9 mph 64 % 0.00 in
17:29 79.6 °F 66.3 °F 29.99 in SE 3.3 mph 10.4 mph 64 % 0.00 in
17:34 79.2 °F 66.4 °F 29.99 in SSW 2.5 mph 8.1 mph 65 % 0.00 in
17:39 78.6 °F 66.3 °F 30.00 in SE 2.7 mph 5.8 mph 66 % 0.00 in
17:44 78.3 °F 66.0 °F 29.99 in SE 0.8 mph 3.5 mph 66 % 0.00 in
17:49 78.1 °F 66.2 °F 29.99 in SSE 2.2 mph 8.1 mph 67 % 0.00 in
17:55 78.0 °F 66.2 °F 30.00 in SSE 1.0 mph 3.5 mph 67 % 0.00 in
18:00 77.9 °F 66.1 °F 29.99 in SSE 3.2 mph 9.2 mph 67 % 0.00 in
18:05 77.5 °F 65.7 °F 29.99 in SSW 4.3 mph 6.9 mph 67 % 0.00 in
18:10 77.2 °F 65.4 °F 29.99 in SSW 2.5 mph 3.5 mph 67 % 0.00 in
18:15 77.1 °F 65.7 °F 29.99 in South 1.9 mph 5.8 mph 68 % 0.00 in
18:20 76.9 °F 65.1 °F 29.99 in WSW 1.9 mph 3.5 mph 67 % 0.00 in
18:25 76.6 °F 64.8 °F 29.99 in SSE 2.8 mph 5.8 mph 67 % 0.00 in
18:30 76.2 °F 64.4 °F 30.00 in South 3.0 mph 5.8 mph 67 % 0.00 in
18:35 75.8 °F 64.5 °F 30.00 in SSE 3.2 mph 10.0 mph 68 % 0.00 in
18:40 75.6 °F 64.3 °F 30.00 in SSW 4.5 mph 11.5 mph 68 % 0.00 in
18:46 75.5 °F 64.6 °F 30.00 in SSW 5.3 mph 11.5 mph 69 % 0.00 in
18:51 75.4 °F 64.5 °F 30.00 in SSW 4.3 mph 5.8 mph 69 % 0.00 in
18:56 75.3 °F 64.4 °F 30.00 in South 4.6 mph 6.9 mph 69 % 0.00 in
19:02 75.2 °F 64.3 °F 30.00 in SE 2.9 mph 6.9 mph 69 % 0.00 in
19:07 75.2 °F 64.3 °F 30.00 in SSW 2.1 mph 4.6 mph 69 % 0.00 in
19:12 75.2 °F 64.3 °F 30.00 in South 3.0 mph 5.8 mph 69 % 0.00 in
19:17 75.0 °F 64.1 °F 30.00 in SSW 2.8 mph 5.8 mph 69 % 0.00 in
19:22 74.8 °F 63.9 °F 30.00 in South 2.3 mph 4.6 mph 69 % 0.00 in
19:27 74.6 °F 63.8 °F 29.99 in SSW 3.5 mph 6.0 mph 69 % 0.00 in
19:32 74.4 °F 64.0 °F 29.99 in South 2.9 mph 6.9 mph 70 % 0.00 in
19:37 74.2 °F 63.8 °F 29.99 in South 2.7 mph 6.9 mph 70 % 0.00 in
19:42 73.9 °F 63.5 °F 29.99 in SW 1.5 mph 3.5 mph 70 % 0.00 in
19:47 73.7 °F 63.3 °F 30.00 in South 3.9 mph 4.6 mph 70 % 0.00 in
19:53 73.5 °F 63.1 °F 29.99 in SSW 3.5 mph 6.9 mph 70 % 0.00 in
19:58 73.4 °F 63.4 °F 29.99 in SSW 3.5 mph 9.2 mph 71 % 0.00 in
20:03 73.2 °F 63.2 °F 29.99 in SSE 3.1 mph 10.4 mph 71 % 0.00 in
20:08 73.1 °F 63.1 °F 29.99 in SSE 4.0 mph 10.4 mph 71 % 0.00 in
20:13 73.0 °F 63.0 °F 29.99 in SSE 3.7 mph 8.1 mph 71 % 0.00 in
20:18 73.0 °F 63.0 °F 29.99 in South 1.7 mph 4.6 mph 71 % 0.00 in
20:23 72.9 °F 62.9 °F 29.98 in South 2.6 mph 5.8 mph 71 % 0.00 in
20:28 72.8 °F 62.8 °F 29.99 in South 3.6 mph 9.2 mph 71 % 0.00 in
20:33 72.7 °F 62.8 °F 29.99 in SSW 1.7 mph 4.6 mph 71 % 0.00 in
20:38 72.6 °F 62.7 °F 29.99 in South 3.3 mph 6.0 mph 71 % 0.00 in
20:44 72.5 °F 63.0 °F 29.99 in South 3.0 mph 8.1 mph 72 % 0.00 in
20:49 72.3 °F 62.8 °F 29.99 in SSE 3.9 mph 8.1 mph 72 % 0.00 in
20:54 72.2 °F 62.7 °F 30.00 in SSW 3.1 mph 6.9 mph 72 % 0.00 in
20:59 72.1 °F 62.6 °F 30.00 in South 3.5 mph 8.1 mph 72 % 0.00 in
21:04 72.0 °F 62.5 °F 30.00 in South 3.3 mph 6.9 mph 72 % 0.00 in
21:09 71.9 °F 62.4 °F 30.00 in SE 2.7 mph 5.8 mph 72 % 0.00 in
21:14 71.8 °F 62.3 °F 30.00 in SSW 4.7 mph 6.9 mph 72 % 0.00 in
21:19 71.7 °F 61.8 °F 30.01 in South 2.1 mph 6.9 mph 71 % 0.00 in
21:24 71.6 °F 62.1 °F 30.01 in SSW 3.2 mph 8.1 mph 72 % 0.00 in
21:29 71.4 °F 61.9 °F 30.01 in South 2.6 mph 4.6 mph 72 % 0.00 in
21:35 71.2 °F 61.7 °F 30.01 in SE 3.4 mph 7.0 mph 72 % 0.00 in
21:40 71.1 °F 61.6 °F 30.01 in SSE 3.8 mph 5.0 mph 72 % 0.00 in
21:45 70.9 °F 61.4 °F 30.01 in South 2.2 mph 6.9 mph 72 % 0.00 in
21:50 70.8 °F 61.3 °F 30.01 in SSE 2.9 mph 5.0 mph 72 % 0.00 in
21:55 70.7 °F 61.2 °F 30.01 in SSW 2.9 mph 5.8 mph 72 % 0.00 in
22:00 70.6 °F 61.1 °F 30.02 in SSW 2.1 mph 4.0 mph 72 % 0.00 in
22:05 70.5 °F 61.0 °F 30.02 in SSW 3.4 mph 6.9 mph 72 % 0.00 in
22:10 70.5 °F 61.4 °F 30.02 in South 2.5 mph 8.1 mph 73 % 0.00 in
22:15 70.4 °F 60.9 °F 30.02 in SSW 2.7 mph 8.1 mph 72 % 0.00 in
22:20 70.3 °F 60.8 °F 30.02 in South 3.5 mph 5.8 mph 72 % 0.00 in
22:26 70.3 °F 60.8 °F 30.02 in South 3.2 mph 7.0 mph 72 % 0.00 in
22:31 70.2 °F 61.1 °F 30.02 in South 2.1 mph 5.8 mph 73 % 0.00 in
22:36 70.1 °F 61.0 °F 30.01 in SW 3.3 mph 7.0 mph 73 % 0.00 in
22:41 70.1 °F 61.0 °F 30.01 in SSW 3.5 mph 6.0 mph 73 % 0.00 in
22:46 70.0 °F 60.9 °F 30.01 in South 3.5 mph 5.8 mph 73 % 0.00 in
22:51 69.9 °F 60.8 °F 30.01 in West 3.3 mph 6.9 mph 73 % 0.00 in
22:56 69.9 °F 60.8 °F 30.01 in SSW 2.5 mph 5.0 mph 73 % 0.00 in
23:01 69.9 °F 60.8 °F 30.01 in South 1.4 mph 3.5 mph 73 % 0.00 in
23:06 69.8 °F 60.8 °F 30.02 in SSW 3.5 mph 6.9 mph 73 % 0.00 in
23:11 69.8 °F 60.8 °F 30.02 in SSW 2.3 mph 3.5 mph 73 % 0.00 in
23:17 69.8 °F 60.8 °F 30.02 in SSW 2.2 mph 4.6 mph 73 % 0.00 in
23:22 69.8 °F 60.8 °F 30.02 in SSW 2.1 mph 6.0 mph 73 % 0.00 in
23:32 69.8 °F 60.8 °F 30.03 in SE 1.1 mph 3.5 mph 73 % 0.00 in
23:37 69.8 °F 61.1 °F 30.03 in SW 1.4 mph 5.0 mph 74 % 0.00 in
23:42 69.8 °F 61.1 °F 30.03 in SSW 2.1 mph 8.1 mph 74 % 0.00 in
23:47 69.9 °F 60.8 °F 30.03 in SW 2.4 mph 3.5 mph 73 % 0.00 in
23:52 69.9 °F 60.8 °F 30.04 in West 2.7 mph 6.0 mph 73 % 0.00 in
23:57 69.9 °F 60.8 °F 30.04 in SSW 2.2 mph 4.6 mph 73 % 0.00 in
Crab Meadow Weather
Compliments of Weather Underground - 3.25 mb

Script developed by  Jim McMurry - jmcmurry@mwt.net Adapted for the template by  Wim van der Kuil - Leuven-Template.eu

Astronomy: One day on Jupiter is only 9 hours and 55 minutes.